Temp
62 62 62 62 62 62 62 63 64 66 61 64 78 77 81 76 78 77 72 73 71 65 63 60 65 65 58 60
61 61 62 62 62 62 63 64 64 61 58 77 74 78 77 75 79 77 75 73 72 66 62 64 63 56 54 48
61 61 61 61 63 63 65 65 59 56 60 76 73 76 74 74 76 75 74 82 69 61 62 52 48 50 44 49
60 61 61 62 64 64 66 71 72 57 67 67 72 74 72 76 71 70 68 64 60 53 52 48 41 45 45 49
60 60 57 59 56 58 61 58 61 63 68 72 73 70 75 71 69 62 52 59 51 46 51 54 55 51 48 47
59 59 59 56 55 55 49 64 67 67 71 69 64 69 73 62 60 54 55 53 48 57 62 59 55 51 47 48
58 59 61 59 64 61 46 62 67 66 67 68 64 64 70 64 58 53 54 49 56 64 60 55 54 50 47 47
57 58 58 64 64 62 45 55 61 65 68 66 60 72 71 64 59 54 55 53 59 59 54 54 54 46 54 54
50 55 59 61 62 56 39 60 61 71 68 62 63 63 69 63 54 57 53 52 54 53 53 55 57 53 56 52
53 58 60 61 56 46 40 55 62 61 58 61 62 64 62 64 63 57 55 55 60 58 56 58 58 59 53 49
52 60 59 53 45 41 57 52 54 59 57 56 58 60 56 51 49 44 43 53 53 56 58 51 55 53 42 36
60 59 54 47 39 48 47 57 56 55 52 56 55 56 53 48 53 50 44 42 43 51 56 51 47 48 45 37
63 57 48 39 37 45 52 50 53 47 49 55 51 51 46 45 49 50 41 42 45 54 56 55 53 47 42 48
61 53 45 43 44 53 54 53 44 49 44 48 48 47 44 48 47 52 50 46 40 52 53 54 52 47 51 43
57 47 39 41 50 56 54 49 46 45 46 45 46 46 43 46 49 50 50 45 43 45 50 46 46 46 44 45
47 42 39 47 51 52 53 52 51 48 45 46 44 46 42 45 50 50 44 45 41 37 45 49 52 49 46 46
36 37 45 49 50 48 48 49 47 48 49 45 40 46 44 50 51 48 43 45 39 33 39 44 49 46 48 48
MSLP
1019.25 1018.43 1017.71 1017.09 1016.53 1016.05 1015.70 1015.55 1015.47 1015.33 1014.63 1012.55 1011.25 1011.30 1011.29 1011.41 1011.31 1011.39 1011.55 1011.74 1011.83 1012.36 1012.48 1012.40 1011.96 1011.71 1011.70 1011.31
1018.91 1017.97 1017.16 1016.45 1015.90 1015.43 1015.19 1015.13 1015.26 1015.14 1013.67 1011.57 1011.36 1011.32 1011.31 1011.41 1011.27 1011.29 1011.48 1011.62 1011.80 1012.24 1012.46 1012.29 1012.16 1012.05 1012.07 1011.93
1018.49 1017.49 1016.56 1015.61 1015.03 1014.79 1014.74 1014.88 1015.22 1014.89 1013.10 1011.56 1011.54 1011.45 1011.41 1011.47 1011.43 1011.38 1011.43 1011.60 1011.96 1012.41 1012.54 1012.97 1013.20 1012.84 1012.71 1012.16
1018.16 1017.12 1016.10 1014.66 1014.41 1014.49 1014.61 1014.50 1014.34 1014.51 1012.82 1012.19 1011.77 1011.63 1011.45 1011.42 1011.56 1011.70 1011.93 1012.15 1012.53 1012.91 1013.25 1013.57 1013.83 1013.40 1013.00 1012.39
1017.98 1016.92 1016.11 1015.06 1015.34 1015.25 1014.72 1014.61 1014.13 1013.71 1012.94 1012.49 1011.88 1011.70 1011.44 1011.61 1011.85 1012.18 1012.59 1012.53 1013.19 1013.33 1013.29 1013.06 1012.96 1012.89 1012.96 1012.90
1017.88 1017.09 1016.10 1016.66 1017.34 1017.63 1016.13 1014.24 1013.72 1013.35 1012.86 1012.65 1012.35 1011.75 1011.36 1012.00 1012.27 1012.62 1012.82 1013.26 1013.09 1012.62 1012.47 1012.47 1012.47 1012.63 1012.87 1012.72
1017.75 1016.97 1017.04 1017.33 1017.00 1017.25 1016.72 1014.30 1013.37 1013.04 1012.82 1012.76 1012.40 1012.01 1011.87 1012.01 1012.27 1012.72 1012.86 1013.19 1012.53 1012.13 1012.18 1012.30 1012.47 1012.53 1012.83 1012.82
1017.83 1017.49 1017.44 1017.33 1016.98 1016.86 1016.40 1014.67 1013.41 1012.93 1012.84 1012.73 1012.57 1012.07 1011.95 1012.35 1012.36 1012.64 1012.71 1012.69 1012.18 1012.09 1012.11 1012.22 1012.37 1012.63 1012.66 1012.88
1018.84 1018.10 1018.08 1017.33 1016.98 1016.95 1015.99 1014.36 1013.22 1012.61 1012.64 1012.99 1012.65 1012.43 1012.24 1012.42 1012.81 1012.99 1013.30 1012.76 1012.27 1012.22 1012.21 1012.18 1012.19 1012.52 1012.71 1013.12
1018.80 1018.06 1017.48 1017.21 1017.28 1016.88 1015.53 1014.23 1013.35 1012.97 1013.11 1012.90 1012.66 1012.69 1012.72 1012.87 1012.98 1013.26 1013.17 1012.82 1012.29 1012.18 1012.12 1012.12 1012.22 1012.42 1012.78 1013.18
1018.41 1017.55 1017.38 1017.50 1017.44 1016.57 1015.57 1015.40 1014.35 1013.79 1013.51 1013.22 1012.93 1013.08 1013.39 1013.74 1014.15 1014.29 1014.16 1013.17 1012.58 1012.46 1012.34 1012.40 1012.40 1012.92 1013.67 1014.19
1017.67 1017.38 1017.58 1017.75 1017.70 1017.93 1016.97 1016.10 1015.24 1014.61 1014.27 1013.76 1013.64 1013.69 1014.19 1015.00 1015.15 1015.16 1015.28 1014.75 1013.54 1013.01 1012.73 1012.80 1012.96 1013.40 1013.89 1014.65
1017.37 1017.48 1017.94 1018.61 1019.62 1018.85 1018.26 1017.29 1016.04 1015.53 1015.06 1014.66 1014.71 1014.77 1015.90 1016.96 1017.07 1016.83 1016.96 1015.91 1014.54 1013.52 1013.17 1013.07 1013.27 1013.50 1013.87 1014.21
1017.20 1017.64 1018.23 1019.50 1019.81 1019.29 1018.71 1018.11 1017.66 1017.01 1016.79 1016.22 1015.94 1016.17 1017.24 1018.47 1018.38 1017.95 1017.62 1017.05 1016.09 1014.41 1013.85 1013.54 1013.47 1013.65 1014.08 1014.54
1017.28 1018.20 1019.48 1020.09 1019.97 1019.58 1019.41 1018.85 1018.54 1018.37 1018.31 1018.21 1017.58 1017.61 1018.88 1019.55 1019.17 1018.56 1018.00 1018.06 1017.34 1015.85 1014.67 1014.26 1013.93 1014.16 1014.16 1014.75
1018.50 1019.55 1020.63 1020.53 1020.48 1020.14 1019.97 1019.68 1019.35 1019.42 1019.45 1019.22 1018.95 1018.85 1019.46 1019.82 1019.66 1019.51 1019.36 1019.16 1018.57 1017.53 1015.85 1014.79 1014.16 1014.13 1014.57 1015.08
1021.21 1021.82 1021.26 1021.36 1021.29 1021.15 1021.18 1021.04 1020.93 1020.98 1020.62 1020.46 1020.39 1019.87 1020.12 1020.43 1020.16 1020.02 1020.06 1019.88 1019.39 1018.67 1017.04 1016.17 1015.27 1015.29 1015.46 1015.94
Wind_Speed
25 26 27 24 23 20 19 15 9 3 2 9 3 5 4 2 1 2 3 3 4 6 6 6 3 6 6 8
26 27 27 24 20 19 15 10 1 2 5 3 1 1 2 3 3 2 1 1 3 2 3 4 8 3 2 4
27 28 27 27 21 13 4 2 2 1 6 1 2 4 1 3 5 3 3 2 1 3 5 2 6 4 2 2
28 29 28 24 4 3 1 4 5 2 5 1 1 3 3 2 1 3 2 1 1 1 5 5 3 4 4 6
28 29 15 5 7 5 5 1 2 3 3 7 2 3 3 1 2 2 2 4 4 4 6 4 4 0 3 5
27 25 8 6 4 4 6 6 3 3 4 1 3 3 2 2 2 4 1 4 6 7 4 1 2 2 4 8
27 5 10 6 5 6 1 4 1 2 3 2 3 3 3 2 4 3 6 6 5 4 1 3 3 3 3 3
5 5 4 7 7 2 4 1 1 1 1 1 2 1 2 2 3 3 3 4 1 2 1 3 2 4 1 2
4 4 5 7 7 4 5 1 2 1 2 1 2 1 1 1 3 5 3 8 3 1 2 3 2 5 2 3
2 4 6 6 3 4 3 2 3 1 1 2 2 3 0 0 3 3 3 9 1 3 5 2 2 3 4 4
3 7 5 3 5 7 4 7 3 5 6 3 3 4 3 1 1 4 4 6 2 1 1 3 2 3 4 4
5 4 4 4 8 3 4 4 5 8 3 4 2 1 3 4 8 6 2 2 4 2 1 1 2 3 5 5
5 3 5 8 2 4 6 8 9 2 3 2 0 3 6 6 5 8 3 6 3 2 2 2 3 3 0 4
4 4 6 5 4 3 5 4 5 6 5 6 5 6 4 6 7 5 3 4 5 3 2 3 2 3 2 3
4 5 5 4 4 6 6 4 4 4 5 5 5 5 5 3 6 7 5 5 1 6 3 2 4 1 3 1
5 3 3 3 4 6 7 6 3 5 4 6 4 6 4 2 6 3 3 3 1 4 7 1 1 2 1 3
5 5 2 4 4 7 6 6 7 6 6 4 4 2 5 1 4 4 2 4 2 4 4 6 7 5 3 4
Wind_Direction
324 321 319 316 311 306 302 302 305 253 295 235 123 144 173 221 30 23 2 20 39 41 329 317 283 272 307 309
323 320 318 314 306 300 298 289 241 249 245 257 328 103 260 272 205 246 175 28 31 284 202 259 339 273 44 345
323 322 319 311 303 290 241 123 113 169 288 355 59 293 151 243 230 201 188 222 27 221 346 64 352 349 277 279
325 325 324 312 284 345 232 209 256 2 298 74 18 338 302 347 346 315 326 159 69 44 357 77 271 305 338 324
327 325 340 0 14 11 19 355 263 279 2 314 162 227 227 109 323 330 234 226 73 247 242 206 198 300 329 302
325 323 326 66 145 204 322 315 254 275 236 223 308 258 105 151 167 234 276 337 257 234 236 241 40 343 301 288
323 334 67 38 344 142 336 302 215 314 114 101 286 199 125 313 229 275 287 184 251 158 126 321 320 281 233 280
351 330 63 338 336 73 73 262 169 224 116 219 299 356 60 103 312 251 265 254 197 140 5 283 227 278 356 19
276 33 302 321 315 63 63 77 103 182 160 208 211 320 12 44 246 270 39 258 175 217 283 265 2 238 327 271
279 259 311 315 46 45 93 57 135 163 162 245 245 175 12 234 245 302 233 231 183 182 208 280 223 321 332 342
298 303 335 29 46 73 323 348 342 354 336 211 226 173 191 290 9 358 346 327 220 71 87 340 9 43 44 358
293 341 28 52 70 59 342 1 358 304 230 29 4 237 359 18 20 20 326 319 329 133 155 195 194 234 142 149
310 61 64 51 72 6 338 328 312 331 38 31 271 342 68 10 38 22 29 3 321 322 45 359 97 325 16 190
332 60 73 113 94 34 330 330 1 28 28 347 35 25 70 346 340 353 56 296 310 261 285 8 295 186 248 41
64 46 95 92 76 45 9 24 2 345 9 360 335 352 2 358 345 320 329 17 63 294 14 210 218 39 314 214
53 56 65 60 18 3 3 353 43 20 13 349 324 19 100 65 341 348 11 53 273 271 240 258 188 177 14 116
63 348 100 71 70 22 15 7 22 3 12 312 345 55 108 118 29 53 48 337 332 323 331 347 1 54 4 50